Location: Ehingen
(48.2869°N, 9.7112°E)
Time: 14:38:08
(UTC+02:00)

ISS - Pass Details

Date: 21 March 2017
Orbit: 400 x 408 km, 51.6° (Epoch: 27 July)

Event Time Altitude Azimuth Distance (km) Brightness Sun altitude
Exits shadow 03:09:16 - 90° (E) 1,586 -0.3 -30.3°
Enters shadow 04:10:33 -58° 293° (WNW) 11,329 3.5 -21.9°
Maximum altitude 04:42:23 53° 210° (SSW) 522 -3.6 -17.0°
Sets 04:47:47 0° 128° (SE) 2,355 0.5 -16.2°
